Regional Weather Roundup
Issued by NWS Cleveland, OH

Home | Current Version | Previous Version | Graphics & Text | Print | Product List | Glossary On
Versions: 1 2 3 4 5 6 7 8 9 10 11 12 13 14 15 16 17 18 19 20 21 22 23 24 25 26 27 28 29 30 31 32 33 34 35 36 37 38 39 40 41 42 43 44 45 46 47 48 49 50
000
ASUS41 KCLE 210000
RWRCLE
OHIO REGIONAL WEATHER ROUNDUP
NATIONAL WEATHER SERVICE WILMINGTON, OH
800 PM EDT MON OCT 20 2014

NOTE: "FAIR" INDICATES FEW OR NO CLOUDS BELOW 12,000 FEET WITH NO
SIGNIFICANT WEATHER AND/OR OBSTRUCTIONS TO VISIBILITY.

OHZ001>008-015>018-024>027-034-035-043-044-210100-
   NORTHWEST OHIO

CITY           SKY/WX    TMP DP  RH WIND       PRES   REMARKS
DEFIANCE       MOCLDY    53  50  89 CALM      29.87R
FINDLAY        CLOUDY    54  51  90 W5        29.85R
TOLEDO EXPRESS PTCLDY    52  50  93 W5        29.85R
TOLEDO METCALF CLOUDY    54  50  86 SW6       29.85S
LIMA           MOCLDY    53  51  93 SW3       29.86R FOG
$$

OHZ009>014-019>023-028>033-038-089-210100-
   NORTHEAST OHIO

CITY           SKY/WX    TMP DP  RH WIND       PRES   REMARKS
CLE-HOPKINS    LGT RAIN  53  51  93 W9        29.87R FOG
CLE-LAKEFRONT  LGT RAIN  54  51  90 SW9       29.84R
CUY CO. ARPT   LGT RAIN  54  52  94 SW14      29.84S
LORAIN-ELYRIA  LGT RAIN  52  51  97 W5        29.85S
ASHTABULA      LGT RAIN  52  46  80 S7        29.85R
AKRON-CANTON   CLOUDY    52  47  83 SW9       29.86R
WOOSTER        NOT AVBL
MANSFIELD      LGT RAIN  51  50  96 S8        29.85R
YOUNGSTOWN     LGT RAIN  51  46  83 SW8       29.86R
$$

OHZ042-051>053-060>062-070>072-077>081-210100-
  SOUTHWEST OHIO

CITY           SKY/WX    TMP DP  RH WIND       PRES   REMARKS
CINC-COVINGTON PTCLDY    60  50  69 SW6       29.89R
CINC-LUNKEN    PTCLDY    57  50  77 SW7       29.89R
HAMILTON       PTCLDY    52  50  93 CALM      29.88S
DAYTON         NOT AVBL
WRIGHT-PAT AFB TSTM      54  52  94 SW6       29.87R
DAYTON GENERAL MOCLDY    54  51  90 S8        29.87R
WILMINGTON     PTCLDY    52  47  83 SW7       29.88R
$$

OHZ036-037-039>041-045>050-054>059-063>069-073>076-082>088-210100-
  CENTRAL AND SOUTHEAST OHIO

CITY           SKY/WX    TMP DP  RH WIND       PRES   REMARKS
COLUMBUS       CLOUDY    53  50  89 SE3       29.87R
OSU AIRPORT    MOCLDY    52  50  93 S5        29.87R
BOLTON FIELD   NOT AVBL
RICKENBACK AFB NOT AVBL
NEWARK         LGT RAIN  52  49  89 S5        29.87R
MARION         CLOUDY    53  50  89 SW7       29.86R
LANCASTER      TSTM      52  49  89 SE7       29.88F FOG
ZANESVILLE     LGT RAIN  51  48  89 S3        29.90R FOG
NEW PHILLY     CLOUDY    53  48  83 S6        29.88S
$$



USA.gov is the U.S. government's official web portal to all federal, state and local government web resources and services.